Regional Weather Roundup
Issued by NWS Kansas City/Pleasant Hill, MO

Home | Current Version | Previous Version | Graphics & Text | Print | Product List | Glossary Off
Versions: 1 2 3 4 5 6 7 8 9 10 11 12 13 14 15 16 17 18 19 20 21 22 23 24 25 26 27 28 29 30 31 32 33 34 35 36 37 38 39 40 41 42 43 44 45 46 47 48 49 50

807
ASUS43 KEAX 312010
RWREAX

WEATHER ROUNDUP FOR EASTERN KANSAS AND NORTHWEST MISSOURI
NATIONAL WEATHER SERVICE KANSAS CITY/PLEASANT HILL MO
300 PM CDT TUE MAY 31 2016

KSZ040-057-103>105-MOZ028-029-037-043-312100-
...KANSAS CITY METROPOLITAN AREA...

CITY           SKY/WX    TMP DP  RH WIND       PRES   REMARKS
K.C. INTL      CLOUDY    75  64  68 CALM      29.91F
K.C. DOWNTOWN  MOSUNNY   79  63  57 W5        29.89F
LEES SUMMIT    PTSUNNY   77  64  64 CALM      29.91F
OLATHE - IXD   CLOUDY    75  63  66 W5        29.92S
OLATHE - OJC   PTSUNNY   75  62  64 W5        29.92R
LAWRENCE       CLOUDY    76  63  64 S6        29.91S

$$

MOZ001>008-011>017-020>025-030>033-038>040-044>046-053-054-312100-
...NORTHERN AND CENTRAL MISSOURI...

CITY           SKY/WX    TMP DP  RH WIND       PRES   REMARKS
ST. JOSEPH     CLOUDY    76  63  64 S8        29.90F
MOSBY          PTCLDY    77  61  57 W5        29.89F
WARRENSBURG    CLOUDY    79  64  61 S5        29.89S
WHITEMAN AFB   PTSUNNY   78  67  69 S5        29.88F
CLINTON        CLOUDY    77  68  73 SE5       29.90S
SEDALIA        CLOUDY    79  66  64 S7        29.91F
WARSAW         NOT AVBL
CHILLICOTHE      N/A     78  66  66 S7        29.91F
KIRKSVILLE     CLOUDY    80  63  55 S14       29.92F

$$

MOZ041-047>049-056>058-063>065-088>090-097-312100-
...EASTERN AND SOUTHERN MISSOURI...

CITY           SKY/WX    TMP DP  RH WIND       PRES   REMARKS
ST. LOUIS INTL MOSUNNY   84  63  49 S10G18    29.93F
SPIRIT OF STL  MOSUNNY   82  65  56 VRB6      29.91F
COLUMBIA       PTSUNNY   79  63  57 S9        29.92F
JEFFERSON CITY CLOUDY    81  62  52 S9        29.90F
ROLLA          PTSUNNY   77  65  66 S10       29.92F
OSAGE BEACH    MOSUNNY   80  65  59 VRB7      29.91
SPRINGFIELD    PTSUNNY   78  63  59 SE10      29.90R
BRANSON        PTSUNNY   77  66  69 SE12      29.92F
JOPLIN         CLOUDY    80  67  64 CALM      29.90R
WEST PLAINS    MOSUNNY   77  64  64 VRB3      29.96F

$$

IAZ060-094-KSZ022-034>040-054-083-096-NEZ052-066-093-312100-
...KANSAS...SOUTHEAST NEBRASKA AND IOWA...

CITY           SKY/WX    TMP DP  RH WIND       PRES   REMARKS
TOPEKA         PTSUNNY   77  61  57 CALM      29.90F
MANHATTAN      PTSUNNY   79  60  52 NE9       29.91F
EMPORIA        SUNNY     77  61  57 NE6       29.92S
CHANUTE        PTSUNNY   79  66  64 NW5       29.91R
WICHITA        CLOUDY    78  61  55 NE6       29.92S
OMAHA          CLOUDY    73  59  61 NW14      29.93R
LINCOLN        CLOUDY    75  56  51 N10       29.95F
FALLS CITY     LGT RAIN  78  63  59 NW8       29.89
LAMONI         CLOUDY    73  64  73 SW9       29.91S
DES MOINES     CLOUDY    81  62  52 S13G21    29.86F

$$





USA.gov is the U.S. government's official web portal to all federal, state and local government web resources and services.